Hourly Data Report for October 03, 2017

All times are specified in Local Standard Time (LST). Add 1 hour to adjust for Daylight Saving Time where and when it is observed.

PENTICTON A
BRITISH COLUMBIA

49°27'45.000" N
119°36'08.000" W
344.40 m
1126146
71889
YYF

Download Data

Hourly Data (October 2017)
Hourly Data Report for October 3, 2017
Temp Definition
°C
Dew Point Temp Definition
°C
Rel Hum Definition
%
Wind Dir Definition
10's deg

Wind Spd Definition
km/h
Visibility Definition
km
Stn Press Definition
kPa
Hmdx Definition


Wind Chill Definition


Weather Definition


TIME
00:00 Legend Double Dagger 5.3 0.0 69 35 12 24.1 98.59     LegendNANA
01:00 Legend Double Dagger 3.6 -0.7 74 35 14 24.1 98.64     Clear
02:00 Legend Double Dagger 3.9 -1.1 70 34 14 24.1 98.68     LegendNANA
03:00 Legend Double Dagger 4.0 -1.5 67 36 17 24.1 98.71     LegendNANA
04:00 Legend Double Dagger 4.0 -1.8 66 34 15 24.1 98.73     Clear
05:00 Legend Double Dagger 4.4 -1.6 65 33 14 24.1 98.76     LegendNANA
06:00 Legend Double Dagger 1.7 -2.5 74 35 13 24.1 98.76     LegendNANA
07:00 Legend Double Dagger 4.4 -1.8 64 35 11 24.1 98.81     Clear
08:00 Legend Double Dagger 9.0 0.1 54 36 8 24.1 98.86     LegendNANA
09:00 Legend Double Dagger 10.8 1.2 51 34 15 24.1 98.86     LegendNANA
10:00 Legend Double Dagger 11.6 1.5 50 34 13 24.1 98.81     Clear
11:00 Legend Double Dagger 12.8 1.3 45 36 12 24.1 98.74     LegendNANA
12:00 Legend Double Dagger 14.1 1.4 42 36 15 24.1 98.66     LegendNANA
13:00 Legend Double Dagger 15.2 1.1 38 36 17 24.1 98.57     Clear
14:00 Legend Double Dagger 16.2 -0.6 32 2 16 24.1 98.48     LegendNANA
15:00 Legend Double Dagger 16.3 0.7 35 35 23 24.1 98.43     LegendNANA
16:00 Legend Double Dagger 15.3 1.4 39 36 23 24.1 98.39     Mainly Clear
17:00 Legend Double Dagger 14.2 0.8 40 2 19 24.1 98.37     LegendNANA
18:00 Legend Double Dagger 7.8 0.9 62 35 9 24.1 98.39     LegendNANA
19:00 Legend Double Dagger 8.0 -0.4 55 36 12 24.1 98.44     Mainly Clear
20:00 Legend Double Dagger 9.0 -1.1 49 34 14 24.1 98.46     LegendNANA
21:00 Legend Double Dagger 8.9 -1.9 47 34 18 24.1 98.50     LegendNANA
22:00 Legend Double Dagger 6.9 -2.2 52 36 15 24.1 98.51     Clear
23:00 Legend Double Dagger 5.1 -2.4 58 35 13 24.1 98.53     LegendNANA

Notes on Data Quality.

Legend

  • E = Estimated
  • M = Missing
  • NA = Not Available
  • ‡ = Partner data that is not subject to review by the National Climate Archives
Date modified: